Weather History for Estherville, IA

Change the Weather History Date:

Tuesday, January 29, 2013

  Actual Average Record
Temperature  
Mean Temperature 28 °F 16 °F  
Max Temperature 33 °F 25 °F 43 °F (1976)
Min Temperature 22 °F 8 °F -25 °F (1966)
Degree Days  
Heating Degree Days 37 49  
Month to date heating degree days 1349 1434  
Since 1 July heating degree days 4277 4577  
Cooling Degree Days 0 0  
Month to date cooling degree days 0 0  
Year to date cooling degree days 0 0  
Moisture  
Dew Point 27 °F    
Average Humidity 90    
Maximum Humidity 96    
Minimum Humidity 84    
Precipitation  
Precipitation 0.03 in 0.02 in 0.62 in (2001)
Month to date precipitation 0.29 0.44  
Sea Level Pressure  
Sea Level Pressure 29.65 in    
Wind  
Wind Speed 16 mph (NNW)    
Max Wind Speed 28 mph    
Max Gust Speed 35 mph    
Visibility 5 miles    
Events Fog    
T = Trace of Precipitation, MM = Missing Value Source: NWS Daily Summary

Daily Weather History Graph

Daily Weather History Graph

Search for Another Location

Airport:

Trip Planner

Search our weather history database for the weather conditions in past years. The results will help you decide how hot, cold, wet, or windy it might be!

Date:

Astronomy

Jan. 29, 2013 Rise Set
Actual Time 7:37 AM CST 5:27 PM CST
Civil Twilight 7:07 AM CST 5:57 PM CST
Nautical Twilight 6:32 AM CST 6:32 PM CST
Astronomical Twilight 5:59 AM CST 7:05 PM CST
Moon 8:31 PM CST (1/29) 8:29 AM CST (1/29)
Length of Visible Light 10h 50m
Length of Day
9h 49m
Waning Gibbous, 93% of the Moon is Illuminated
Jan 29
Waning Gibbous
Feb 3
Last Quarter
Feb 10
New
Feb 17
First Quarter
Feb 25
Full

Hourly Weather History & Observations

Time (CST) Temp. Windchill Dew Point Humidity Pressure Visibility Wind Dir Wind Speed Gust Speed Precip Events Conditions
12:52 AM 33.1 °F - 32.0 °F 96% 29.57 in 0.2 mi Calm Calm - N/A Fog Fog
1:52 AM 33.1 °F 27.7 °F 30.9 °F 92% 29.58 in 0.5 mi WNW 5.8 mph - 0.02 in Fog Fog
2:52 AM 33.1 °F 26.1 °F 32.0 °F 96% 29.60 in 0.5 mi WNW 8.1 mph - 0.01 in Fog Fog
3:25 AM 33.8 °F 25.3 °F 32.0 °F 93% 29.55 in 1.0 mi NW 11.5 mph - N/A   Mist
3:32 AM 33.8 °F 25.3 °F 32.0 °F 93% 29.56 in 1.8 mi NW 11.5 mph - N/A   Overcast
3:41 AM 33.8 °F 25.3 °F 32.0 °F 93% 29.56 in 2.0 mi NW 11.5 mph - N/A   Overcast
3:52 AM 32.0 °F 21.2 °F 30.9 °F 96% 29.62 in 3.0 mi NW 16.1 mph - N/A   Overcast
4:38 AM 32.0 °F 22.5 °F 30.2 °F 93% 29.56 in 9.0 mi NW 12.7 mph - N/A   Overcast
4:52 AM 32.0 °F 22.5 °F 30.0 °F 92% 29.60 in 9.0 mi NNW 12.7 mph - N/A   Overcast
5:52 AM 32.0 °F 22.5 °F 30.0 °F 92% 29.58 in 10.0 mi North 12.7 mph - N/A   Overcast
6:52 AM 32.0 °F 23.6 °F 30.0 °F 92% 29.62 in 10.0 mi NNW 10.4 mph - N/A   Overcast
7:52 AM 30.9 °F 20.2 °F 28.0 °F 89% 29.65 in 10.0 mi NW 15.0 mph - N/A   Overcast
8:52 AM 28.9 °F 17.3 °F 27.0 °F 92% 29.65 in 4.0 mi NNW 16.1 mph - N/A   Overcast
9:52 AM 30.0 °F 19.5 °F 28.0 °F 92% 29.68 in 3.0 mi NNW 13.8 mph - N/A   Overcast
10:11 AM 30.2 °F 20.2 °F 28.4 °F 93% 29.64 in 4.0 mi NNW 12.7 mph - N/A   Overcast
10:52 AM 30.9 °F 21.2 °F 28.9 °F 92% 29.71 in 5.0 mi North 12.7 mph - N/A   Overcast
11:52 AM 30.0 °F 17.9 °F 28.0 °F 92% 29.69 in 4.0 mi North 18.4 mph - N/A   Overcast
12:52 PM 28.9 °F 18.2 °F 27.0 °F 92% 29.68 in 3.0 mi North 13.8 mph - N/A   Overcast
1:52 PM 30.0 °F 18.7 °F 27.0 °F 88% 29.67 in 4.0 mi North 16.1 mph - N/A   Overcast
2:52 PM 30.9 °F 19.8 °F 28.0 °F 89% 29.67 in 5.0 mi North 16.1 mph 23.0 mph N/A   Overcast
3:52 PM 30.9 °F 19.4 °F 28.0 °F 89% 29.68 in 6.0 mi North 17.3 mph - N/A   Overcast
4:06 PM 30.2 °F 18.5 °F 28.4 °F 93% 29.63 in 6.0 mi North 17.3 mph - N/A   Overcast
4:52 PM 30.0 °F 19.1 °F 27.0 °F 88% 29.69 in 6.0 mi North 15.0 mph 24.2 mph N/A   Overcast
5:01 PM 30.2 °F 18.5 °F 26.6 °F 86% 29.66 in 5.0 mi NNW 17.3 mph - N/A   Overcast
5:11 PM 30.2 °F 18.1 °F 26.6 °F 86% 29.66 in 6.0 mi North 18.4 mph - N/A   Overcast
5:52 PM 28.9 °F 16.5 °F 26.1 °F 89% 29.71 in 6.0 mi North 18.4 mph - N/A   Overcast
6:22 PM 28.4 °F 14.4 °F 24.8 °F 86% 29.64 in 6.0 mi North 23.0 mph 28.8 mph N/A   Overcast
6:52 PM 26.1 °F 11.0 °F 23.0 °F 88% 29.70 in 5.0 mi NNW 24.2 mph 31.1 mph N/A   Overcast
7:52 PM 24.1 °F 8.7 °F 21.9 °F 91% 29.74 in 6.0 mi North 23.0 mph 31.1 mph N/A   Overcast
8:52 PM 24.1 °F 9.0 °F 21.9 °F 91% 29.73 in 6.0 mi NNW 21.9 mph 31.1 mph N/A   Overcast
9:52 PM 24.1 °F 8.0 °F 21.0 °F 88% 29.78 in 5.0 mi NNW 25.3 mph 31.1 mph N/A   Overcast
10:52 PM 23.0 °F 7.6 °F 19.9 °F 88% 29.74 in 6.0 mi NNW 21.9 mph - N/A   Overcast
11:52 PM 21.9 °F 5.8 °F 19.9 °F 92% 29.73 in 6.0 mi NNW 23.0 mph 33.4 mph N/A   Overcast